Location: Charlotte
(35.2269°N, 80.8433°W)
Time: 15:48:02
(UTC-04:00)

ISS - Visible Passes

Search period start: 31 August 2015 00:00
Search period end: 10 September 2015 00:00
Orbit: 400 x 402 km, 51.6° (Epoch: 31 August)

Date Brightness Start Highest point End Pass type
(mag) Time Alt. Az. Time Alt. Az. Time Alt. Az.
06 Sep -0.9 06:14:33 10° S 06:17:01 20° SE 06:19:32 10° E visible
08 Sep -2.8 06:03:48 14° SSW 06:06:28 55° SE 06:09:40 10° NE visible
09 Sep -1.5 05:13:00 24° SE 05:13:09 24° SE 05:15:52 10° ENE visible
